Voltar ao catálogo

BREEZE-M DEB

AtivoMEO
NORAD 41544·DEBRIS·🇷🇺 Russia

Lançado Dec 13, 2015 de Baikonur Cosmodrome

Loading…

Próximas Passagens (próximas 24 horas)

TLE

AtualizadoSource: Space-Track

Época: Sep 12, 2026, 23:46 UTC

1 41544U 15075E   26255.99092332 -.00000236  00000-0  00000+0 0  9994
2 41544   8.5905  58.4017 0321773 177.6475 182.6565  1.05681147 41160

Acompanhe BREEZE-M DEB em tempo real com AllMySat

Download on the App Store